Location: Borovka
(49.7741°N, 14.5280°E)
Time: 18:49:39
(UTC+00:00)

Thor Agena Rocket - Pass Details

Date: 14 February 2026
Orbit: 755 x 801 km, 99.1° (Epoch: 11 March)

Event Time Altitude Azimuth Distance (km) Brightness Sun altitude
Rises 17:03:18 0° 182° (S) 3,222 6.9 -7.7°
Reaches altitude 10° 17:05:42 10° 189° (S) 2,306 6.3 -8.1°
Maximum altitude 17:10:32 43° 261° (W) 1,083 5.0 -8.9°
Drops below altitude 10° 17:15:27 10° 333° (NNW) 2,352 6.3 -9.7°
Sets 17:17:55 0° 340° (NNW) 3,292 6.9 -10.1°
